TimeMDT,TemperatureF,Dew PointF,Humidity,Sea Level PressureIn,VisibilityMPH,Wind Direction,Wind SpeedMPH,Gust SpeedMPH,PrecipitationIn,Events,Conditions,WindDirDegrees,DateUTC
12:53 AM,57.9,55.9,93,30.06,10.0,ESE,3.5,-,N/A,,Clear,120,2013-08-30 06:53:00
1:53 AM,57.9,55.0,90,30.06,10.0,Calm,Calm,-,N/A,,Clear,0,2013-08-30 07:53:00
2:53 AM,55.0,53.1,93,30.06,10.0,Calm,Calm,-,N/A,,Clear,0,2013-08-30 08:53:00
3:53 AM,54.0,51.1,90,30.07,10.0,Calm,Calm,-,N/A,,Clear,0,2013-08-30 09:53:00
4:53 AM,52.0,51.1,97,30.07,10.0,Calm,Calm,-,N/A,,Clear,0,2013-08-30 10:53:00
5:53 AM,51.1,48.9,92,30.11,10.0,NW,3.5,-,N/A,,Clear,320,2013-08-30 11:53:00
6:53 AM,51.1,50.0,96,30.11,10.0,Calm,Calm,-,N/A,,Clear,0,2013-08-30 12:53:00
7:53 AM,54.0,51.1,90,30.13,10.0,Calm,Calm,-,N/A,,Clear,0,2013-08-30 13:53:00
8:53 AM,55.9,53.1,90,30.14,10.0,Calm,Calm,-,N/A,,Clear,0,2013-08-30 14:53:00
9:53 AM,60.1,54.0,80,30.14,10.0,Calm,Calm,-,N/A,,Clear,0,2013-08-30 15:53:00
10:53 AM,64.9,54.0,68,30.13,10.0,Calm,Calm,-,N/A,,Clear,0,2013-08-30 16:53:00
11:53 AM,71.1,55.0,57,30.11,10.0,Calm,Calm,-,N/A,,Clear,0,2013-08-30 17:53:00
12:53 PM,78.1,51.1,39,30.08,10.0,Variable,3.5,-,N/A,,Partly Cloudy,0,2013-08-30 18:53:00
1:53 PM,79.0,48.9,35,30.06,10.0,WSW,6.9,-,N/A,,Scattered Clouds,250,2013-08-30 19:53:00
2:53 PM,80.1,48.0,32,30.04,10.0,NW,10.4,-,N/A,,Mostly Cloudy,310,2013-08-30 20:53:00
3:53 PM,81.0,46.9,30,30.02,10.0,WNW,18.4,28.8,N/A,,Scattered Clouds,290,2013-08-30 21:53:00
4:53 PM,84.0,43.0,24,30.02,10.0,West,20.7,26.5,N/A,,Clear,280,2013-08-30 22:53:00
5:53 PM,82.9,42.1,24,30.02,10.0,NW,17.3,23.0,N/A,,Clear,310,2013-08-30 23:53:00
6:53 PM,80.1,43.0,27,30.02,10.0,NW,15.0,-,N/A,,Clear,320,2013-08-31 00:53:00
7:53 PM,75.9,39.9,27,30.02,10.0,WNW,20.7,27.6,N/A,,Clear,300,2013-08-31 01:53:00
8:53 PM,70.0,41.0,35,30.05,10.0,North,5.8,-,N/A,,Clear,360,2013-08-31 02:53:00
9:53 PM,64.0,43.0,46,30.07,10.0,NNW,3.5,-,N/A,,Clear,340,2013-08-31 03:53:00
10:53 PM,64.0,43.0,46,30.08,10.0,Calm,Calm,-,N/A,,Clear,0,2013-08-31 04:53:00
11:53 PM,62.1,44.1,52,30.08,10.0,Calm,Calm,-,N/A,,Clear,0,2013-08-31 05:53:00